GLET16 YCBG-YCBG

Flight info

Callsign GLET16
Flight time 0h 9m
Altitude 5000
Route VFR
Aircraft H60/M-SDFGRWY/S

Departure

Time 2026-04-23 11:10
Airport Cambridge Aerodrome (YCBG)

Arrival

Time 2026-04-23 11:20
Airport Cambridge Aerodrome (YCBG)
Time Latitude Longitude Altitude Speed Heading
2026-04-23 11:09 -42.91748 147.46172 225 ft 62 kts 154°
2026-04-23 11:09 -42.91740 147.46598 326 ft 34 kts 159°
2026-04-23 11:09 -42.91891 147.46921 331 ft 82 kts 139°
2026-04-23 11:09 -42.92297 147.47914 194 ft 136 kts 142°
2026-04-23 11:10 -42.93148 147.48080 386 ft 133 kts 182°
2026-04-23 11:10 -42.94183 147.48166 331 ft 153 kts 168°
2026-04-23 11:10 -42.94876 147.48407 1160 ft 89 kts 158°
2026-04-23 11:10 -42.95760 147.48615 722 ft 135 kts 171°
2026-04-23 11:11 -42.96534 147.48848 1077 ft 112 kts 166°
2026-04-23 11:11 -42.97188 147.49039 1102 ft 98 kts 168°
2026-04-23 11:11 -42.97087 147.49391 861 ft 108 kts
2026-04-23 11:11 -42.96285 147.49482 724 ft 116 kts 359°
2026-04-23 11:12 -42.95615 147.49452 726 ft 91 kts
2026-04-23 11:12 -42.95031 147.49535 740 ft 84 kts
2026-04-23 11:12 -42.94443 147.49616 762 ft 89 kts
2026-04-23 11:12 -42.93803 147.49676 701 ft 87 kts
2026-04-23 11:13 -42.93242 147.49705 761 ft 88 kts 358°
2026-04-23 11:13 -42.92629 147.49662 670 ft 74 kts 359°
2026-04-23 11:13 -42.92128 147.49598 833 ft 87 kts 358°
2026-04-23 11:13 -42.91420 147.49558 552 ft 103 kts 357°
2026-04-23 11:14 -42.90773 147.49421 580 ft 84 kts 349°
2026-04-23 11:14 -42.90189 147.49268 764 ft 91 kts 353°
2026-04-23 11:14 -42.89470 147.49129 837 ft 106 kts 353°
2026-04-23 11:14 -42.88775 147.48976 988 ft 108 kts 353°
2026-04-23 11:15 -42.87987 147.48881 777 ft 111 kts 359°
2026-04-23 11:15 -42.87184 147.48891 648 ft 123 kts
2026-04-23 11:15 -42.86303 147.48941 448 ft 125 kts
2026-04-23 11:15 -42.85503 147.49066 756 ft 110 kts 11°
2026-04-23 11:16 -42.84703 147.49304 755 ft 129 kts 11°
2026-04-23 11:16 -42.83912 147.49470 805 ft 94 kts
2026-04-23 11:16 -42.83332 147.49494 972 ft 83 kts 357°
2026-04-23 11:16 -42.82756 147.49224 969 ft 91 kts 340°
2026-04-23 11:17 -42.82153 147.48903 1145 ft 91 kts 341°
2026-04-23 11:17 -42.81697 147.48309 1270 ft 98 kts 300°
2026-04-23 11:17 -42.81511 147.47555 1769 ft 64 kts 291°
2026-04-23 11:17 -42.81815 147.47078 1783 ft 119 kts 201°
2026-04-23 11:18 -42.82709 147.46749 1076 ft 139 kts 202°
2026-04-23 11:18 -42.83450 147.46870 1121 ft 89 kts 118°
2026-04-23 11:18 -42.83549 147.47625 1207 ft 76 kts 94°
2026-04-23 11:18 -42.83639 147.48296 1094 ft 71 kts 98°
2026-04-23 11:19 -42.83748 147.48986 972 ft 80 kts 102°
2026-04-23 11:19 -42.83858 147.49778 766 ft 76 kts 52°
2026-04-23 11:19 -42.83493 147.49642 506 ft 71 kts 327°
2026-04-23 11:19 -42.83005 147.48997 188 ft 50 kts 323°
2026-04-23 11:20 -42.82997 147.48597 306 ft 49 kts 269°
2026-04-23 11:20 -42.82936 147.48195 106 ft 37 kts 292°
2026-04-23 11:20 -42.82893 147.47998 53 ft 6 kts 289°
2026-04-23 11:20 -42.82831 147.47670 215 ft 90 kts 289°
2026-04-23 11:21 -42.82766 147.46725 497 ft 111 kts 246°
2026-04-23 11:21 -42.83455 147.46510 615 ft 114 kts 152°
2026-04-23 11:21 -42.83848 147.47464 524 ft 121 kts 107°
2026-04-23 11:21 -42.84184 147.48589 353 ft 154 kts 109°
2026-04-23 11:22 -42.84546 147.49911 324 ft 135 kts 111°
2026-04-23 11:22 -42.84727 147.50985 789 ft 88 kts 51°
2026-04-23 11:22 -42.84125 147.51136 653 ft 105 kts 327°
2026-04-23 11:22 -42.83523 147.50465 455 ft 118 kts 303°
2026-04-23 11:23 -42.83164 147.49518 295 ft 102 kts 275°
2026-04-23 11:23 -42.83038 147.48727 174 ft 69 kts 277°
2026-04-23 11:23 -42.82953 147.48302 94 ft 23 kts 274°
2026-04-23 11:23 -42.82936 147.48222 45 ft 3 kts 266°
2026-04-23 11:24 -42.82935 147.48206 42 ft 5 kts 263°
2026-04-23 11:24 -42.82921 147.48131 44 ft 9 kts 282°
2026-04-23 11:24 -42.82905 147.48051 49 ft 9 kts 285°
2026-04-23 11:24 -42.82888 147.47965 52 ft 11 kts 283°
2026-04-23 11:25 -42.82870 147.47879 54 ft 6 kts 282°
2026-04-23 11:25 -42.82879 147.47817 52 ft 7 kts 171°
2026-04-23 11:25 -42.82919 147.47805 51 ft 3 kts 286°
2026-04-23 11:25 -42.82912 147.47760 50 ft 5 kts 292°
2026-04-23 11:26 -42.82912 147.47718 51 ft 2 kts 205°
2026-04-23 11:26 -42.82930 147.47715 48 ft 2 kts 206°
2026-04-23 11:26 -42.82943 147.47710 50 ft 1 kts 226°
2026-04-23 11:26 -42.82948 147.47703 51 ft 3 kts 283°
2026-04-23 11:27 -42.82947 147.47694 52 ft 2 kts 339°
2026-04-23 11:27 -42.82939 147.47689 45 ft 1 kts 342°
2026-04-23 11:27 -42.82938 147.47688 45 ft 0 kts 342°